WGS 10 (USA 291)

Last updated on Nov. 16, 2019, 4:19 a.m. UTC

1 44071U 19014A   19318.89424420  .00000065  00000-0  00000+0 0  9996
2 44071   0.0642  99.2263 0000188 141.5011 314.7363  1.00270945  2480
UTC
Height (km)
Latitude
Longitude
Inclination
Orbital Period
UTC large
Height (km)
Speed (km/s)
/
Latitude / Longitude
Inclination (degrees)
Orbital Period (minutes)
Azimuth
Elevation
Range (km)
Doppler Factor
iOS Compass Heading
iOS Angle

Next 30 passes for location: Hong Kong

Rise time Rise Azimuth (degrees) Set time Set Azimuth (degrees) Duration Max altitude (degrees)

No matching passes for this satellites